Weather History for Martha's Vineyard, MA

Change the Weather History Date:

Wednesday, January 2, 2013

  Actual Average Record
Temperature  
Mean Temperature 24 °F -  
Max Temperature 30 °F 41 °F 57 °F (1966)
Min Temperature 19 °F 25 °F 5 °F (2009)
Degree Days  
Heating Degree Days 40    
Moisture  
Dew Point 11 °F    
Average Humidity 55    
Maximum Humidity 62    
Minimum Humidity 51    
Precipitation  
Precipitation 0.00 in - - ()
Sea Level Pressure  
Sea Level Pressure 29.98 in    
Wind  
Wind Speed 11 mph (NW)    
Max Wind Speed 16 mph    
Max Gust Speed 24 mph    
Visibility 10 miles    
Events      
Averages and records for this station are not official NWS values.
T = Trace of Precipitation, MM = Missing Value Source: NWS Daily Summary

Daily Weather History Graph

Daily Weather History Graph

Search for Another Location

Airport:

Trip Planner

Search our weather history database for the weather conditions in past years. The results will help you decide how hot, cold, wet, or windy it might be!

Date:

Astronomy

Jan. 02, 2013 Rise Set
Actual Time 7:08 AM EST 4:24 PM EST
Civil Twilight 6:37 AM EST 4:55 PM EST
Nautical Twilight 6:02 AM EST 5:30 PM EST
Astronomical Twilight 5:29 AM EST 6:04 PM EST
Moon 9:58 PM EST (1/2) 9:45 AM EST (1/2)
Length of Visible Light 10h 18m
Length of Day
9h 16m
Waning Gibbous, 75% of the Moon is Illuminated
Jan 2
Waning Gibbous
Jan 4
Last Quarter
Jan 11
New
Jan 18
First Quarter
Jan 26
Full

Hourly Weather History & Observations

Time (EST) Temp. Windchill Dew Point Humidity Pressure Visibility Wind Dir Wind Speed Gust Speed Precip Events Conditions
12:53 AM 24.1 °F 13.1 °F 9.0 °F 53% 29.93 in 10.0 mi NW 11.5 mph - N/A   Clear
1:53 AM 23.0 °F 11.1 °F 8.1 °F 53% 29.94 in 10.0 mi NW 12.7 mph 19.6 mph N/A   Clear
2:53 AM 21.9 °F 10.4 °F 7.0 °F 53% 29.96 in 10.0 mi NNW 11.5 mph - N/A   Clear
3:53 AM 19.9 °F 10.1 °F 7.0 °F 57% 29.95 in 10.0 mi NW 8.1 mph 18.4 mph N/A   Clear
4:53 AM 19.9 °F 8.6 °F 5.0 °F 52% 29.95 in 10.0 mi NNW 10.4 mph - N/A   Clear
5:53 AM 19.0 °F 11.1 °F 6.1 °F 57% 29.96 in 10.0 mi NNW 5.8 mph - N/A   Clear
7:53 AM 19.9 °F 14.9 °F 9.0 °F 62% 29.96 in 10.0 mi NW 3.5 mph - N/A   Clear
8:53 AM 24.1 °F 13.1 °F 10.9 °F 57% 29.96 in 10.0 mi NNW 11.5 mph - N/A   Clear
9:53 AM 27.0 °F 18.0 °F 12.9 °F 56% 29.98 in 10.0 mi NW 9.2 mph - N/A   Clear
10:53 AM 28.9 °F 20.4 °F 12.9 °F 51% 29.96 in 10.0 mi WNW 9.2 mph - N/A   Clear
11:53 AM 28.9 °F 19.2 °F 15.1 °F 56% 29.94 in 10.0 mi West 11.5 mph 20.7 mph N/A   Clear
12:53 PM 28.9 °F 21.1 °F 15.1 °F 56% 29.93 in 10.0 mi WNW 8.1 mph 18.4 mph N/A   Clear
1:53 PM 30.0 °F 21.1 °F 15.1 °F 54% 29.92 in 10.0 mi West 10.4 mph 18.4 mph N/A   Clear
2:53 PM 30.0 °F 18.7 °F 14.0 °F 51% 29.95 in 10.0 mi WNW 16.1 mph 24.2 mph N/A   Clear
3:53 PM 28.9 °F 21.1 °F 15.1 °F 56% 29.96 in 10.0 mi West 8.1 mph - N/A   Clear
4:53 PM 28.9 °F 21.9 °F 15.1 °F 56% 29.99 in 10.0 mi WNW 6.9 mph - N/A   Mostly Cloudy
5:53 PM 28.0 °F 17.5 °F 14.0 °F 56% 30.01 in 10.0 mi NW 12.7 mph 19.6 mph N/A   Clear
6:53 PM 27.0 °F 18.0 °F 12.0 °F 53% 30.03 in 10.0 mi NW 9.2 mph 19.6 mph N/A   Partly Cloudy
7:53 PM 27.0 °F 16.1 °F 12.0 °F 53% 30.04 in 10.0 mi NW 12.7 mph 20.7 mph N/A   Clear
8:53 PM 27.0 °F 15.2 °F 12.0 °F 53% 30.04 in 10.0 mi NW 15.0 mph 20.7 mph N/A   Clear
9:53 PM 26.1 °F 14.0 °F 12.9 °F 58% 30.06 in 10.0 mi NW 15.0 mph 20.7 mph N/A   Clear
10:53 PM 24.1 °F 12.0 °F 12.9 °F 62% 30.07 in 10.0 mi NNW 13.8 mph - N/A   Clear
11:53 PM 21.9 °F 9.8 °F 10.0 °F 60% 30.08 in 10.0 mi NNW 12.7 mph 17.3 mph N/A   Clear